DW9408 Weather Reports


Display with metric or nautical units.
time (UTC)temp
F
wind
direction
speed
MPH
gust
MPH
rain 1hr
in
rain 24hr
in
rain mn
in
humidity
%
barometer
mb
20260901225115 91 59 0.0 0.0 0.00 0.00 0.00 74 1017.5
20260901224614 91 59 0.0 0.0 0.00 0.00 0.00 71 1017.5
20260901224112 91 59 0.0 0.0 0.00 0.00 0.00 69 1017.5
20260901223611 92 59 0.0 0.0 0.00 0.00 0.00 68 1017.5
20260901223342 92 59 0.0 0.0 0.00 0.00 0.00 68 1017.5
20260901222607 93 59 0.0 0.0 0.00 0.00 0.00 71 1017.4
20260901221605 92 59 0.0 0.0 0.00 0.00 0.00 69 1017.3
20260901221103 92 59 0.0 0.0 0.00 0.00 0.00 71 1017.2
20260901220603 92 59 0.0 0.0 0.00 0.00 0.00 66 1017.3
20260901215832 93 59 0.0 0.0 0.00 0.00 0.00 66 1017.2
20260901215332 93 59 0.0 0.0 0.00 0.00 0.00 66 1017.3
20260901214600 93 59 0.0 0.0 0.00 0.00 0.00 64 1017.3
20260901214331 93 59 0.0 0.0 0.00 0.00 0.00 69 1017.3
20260901213554 94 59 0.0 0.0 0.00 0.00 0.00 59 1017.3
20260901213047 94 59 0.0 0.0 0.00 0.00 0.00 63 1017.4
20260901212814 94 59 0.0 0.0 0.00 0.00 0.00 57 1017.3
20260901212036 94 59 0.0 0.0 0.00 0.00 0.00 59 1017.5
20260901211530 94 59 0.0 0.0 0.00 0.00 0.00 62 1017.4
20260901211023 95 59 0.0 0.0 0.00 0.00 0.00 58 1017.4
20260901210518 94 59 0.0 0.0 0.00 0.00 0.00 56 1017.5
20260901210012 94 59 0.0 0.0 0.00 0.00 0.00 57 1017.5
20260901205736 95 59 0.0 1.0 0.00 0.00 0.00 63 1017.5
20260901205000 95 59 0.0 1.0 0.00 0.00 0.00 55 1017.5
20260901204454 95 59 0.0 0.0 0.00 0.00 0.00 61 1017.6
20260901204218 95 59 0.0 0.0 0.00 0.00 0.00 59 1017.6
20260901203441 94 59 0.0 2.0 0.00 0.00 0.00 57 1017.6
20260901202935 94 59 0.0 2.0 0.00 0.00 0.00 54 1017.6
20260901202700 94 59 0.0 1.0 0.00 0.00 0.00 56 1017.7
20260901201924 94 59 0.0 0.0 0.00 0.00 0.00 60 1017.7
20260901201417 93 59 0.0 0.0 0.00 0.00 0.00 57 1017.7
20260901200912 93 59 0.0 0.0 0.00 0.00 0.00 58 1017.8
20260901200405 93 59 0.0 3.0 0.00 0.00 0.00 58 1017.9
20260901195900 93 59 1.0 4.0 0.00 0.00 0.00 58 1017.9
20260901195354 93 61 0.0 4.0 0.00 0.00 0.00 56 1017.9
20260901195119 94 77 0.0 0.0 0.00 0.00 0.00 55 1018.0
20260901194341 93 77 0.0 0.0 0.00 0.00 0.00 62 1017.9
20260901193836 93 77 0.0 2.0 0.00 0.00 0.00 57 1018.0
20260901193330 92 77 0.0 3.0 0.00 0.00 0.00 57 1018.0
20260901192823 93 77 0.0 3.0 0.00 0.00 0.00 61 1018.1
20260901192318 93 78 0.0 3.0 0.00 0.00 0.00 57 1018.2
20260901191813 93 80 0.0 2.0 0.00 0.00 0.00 63 1018.4
20260901191537 93 80 0.0 2.0 0.00 0.00 0.00 58 1018.4
20260901190800 93 80 0.0 0.0 0.00 0.00 0.00 63 1018.5
20260901190254 92 80 0.0 0.0 0.00 0.00 0.00 59 1018.6
20260901185747 92 80 0.0 2.0 0.00 0.00 0.00 62 1018.6
20260901185242 92 80 0.0 2.0 0.00 0.00 0.00 56 1018.7
20260901185007 92 80 0.0 1.0 0.00 0.00 0.00 62 1018.7
20260901184230 92 80 0.0 4.0 0.00 0.00 0.00 60 1018.7
20260901183724 92 80 0.0 4.0 0.00 0.00 0.00 59 1018.6
20260901183217 92 101 0.0 0.0 0.00 0.00 0.00 57 1018.6
20260901182712 92 102 0.0 2.0 0.00 0.00 0.00 59 1018.6
20260901182206 91 107 0.0 2.0 0.00 0.00 0.00 57 1018.7
20260901181700 91 95 0.0 3.0 0.00 0.00 0.00 57 1018.7
20260901181154 91 96 0.0 4.0 0.00 0.00 0.00 62 1018.7
20260901180647 91 30 0.0 4.0 0.00 0.00 0.00 63 1018.7
20260901180143 90 244 1.0 5.0 0.00 0.00 0.00 67 1018.8
20260901175643 90 242 1.0 5.0 0.00 0.00 0.00 66 1018.7
20260901175144 90 196 1.0 4.0 0.00 0.00 0.00 69 1018.7
20260901174912 90 187 1.0 4.0 0.00 0.00 0.00 67 1018.8
20260901174140 90 185 0.0 4.0 0.00 0.00 0.00 66 1018.8
20260901173641 90 71 1.0 4.0 0.00 0.00 0.00 70 1019.0
20260901173139 90 71 1.0 4.0 0.00 0.00 0.00 69 1019.0
20260901172138 90 117 1.0 5.0 0.00 0.00 0.00 70 1019.0
20260901171639 89 169 2.0 7.0 0.00 0.00 0.00 70 1019.1
20260901171140 89 191 1.0 7.0 0.00 0.00 0.00 69 1019.2
20260901170640 89 200 1.0 5.0 0.00 0.00 0.00 74 1019.3
20260901170136 89 174 0.0 5.0 0.00 0.00 0.00 73 1019.4
20260901165634 89 82 0.0 1.0 0.00 0.00 0.00 70 1019.4
20260901165134 89 82 0.0 1.0 0.00 0.00 0.00 72 1019.4
20260901164905 89 82 0.0 3.0 0.00 0.00 0.00 70 1019.5
20260901164136 89 214 0.0 3.0 0.00 0.00 0.00 70 1019.5
20260901163907 89 87 0.0 0.0 0.00 0.00 0.00 71 1019.6
20260901162634 89 90 0.0 0.0 0.00 0.00 0.00 75 1019.6
20260901162135 88 90 0.0 2.0 0.00 0.00 0.00 74 1019.8
20260901161635 88 322 0.0 2.0 0.00 0.00 0.00 75 1019.8
20260901160636 88 267 0.0 3.0 0.00 0.00 0.00 76 1019.9
20260901160133 88 236 0.0 4.0 0.00 0.00 0.00 74 1019.9
20260901155632 87 350 0.0 4.0 0.00 0.00 0.00 70 1019.9
20260901155134 87 178 0.0 0.0 0.00 0.00 0.00 78 1020.0
20260901154630 87 178 0.0 0.0 0.00 0.00 0.00 75 1020.0
20260901154130 87 165 0.0 0.0 0.00 0.00 0.00 73 1020.0
20260901153627 87 263 0.0 0.0 0.00 0.00 0.00 76 1020.1
20260901153124 87 266 0.0 0.0 0.00 0.00 0.00 75 1020.1
20260901152123 86 266 0.0 0.0 0.00 0.00 0.00 75 1020.2
20260901151621 86 261 0.0 0.0 0.00 0.00 0.00 78 1020.2
20260901151120 86 261 0.0 0.0 0.00 0.00 0.00 77 1020.2
20260901150618 86 261 0.0 0.0 0.00 0.00 0.00 78 1020.2
20260901150119 85 261 0.0 0.0 0.00 0.00 0.00 80 1020.2
20260901145613 84 261 0.0 0.0 0.00 0.00 0.00 81 1020.2
20260901145107 84 261 0.0 0.0 0.00 0.00 0.00 79 1020.2
20260901144602 84 261 0.0 0.0 0.00 0.00 0.00 80 1020.2
20260901144055 84 259 0.0 0.0 0.00 0.00 0.00 82 1020.3
20260901143548 83 259 0.0 0.0 0.00 0.00 0.00 84 1020.2
20260901143043 83 259 0.0 0.0 0.00 0.00 0.00 82 1020.2
20260901142536 83 254 0.0 0.0 0.00 0.00 0.00 82 1020.3
20260901142031 82 253 0.0 0.0 0.00 0.00 0.00 84 1020.2
20260901141755 82 254 0.0 0.0 0.00 0.00 0.00 87 1020.2
20260901140746 81 254 0.0 0.0 0.00 0.00 0.00 88 1020.1
20260901140007 80 254 0.0 0.0 0.00 0.00 0.00 90 1020.1
20260901135501 79 254 0.0 0.0 0.00 0.00 0.00 91 1020.1
20260901134955 78 254 0.0 0.0 0.00 0.00 0.00 93 1020.1
20260901134449 77 254 0.0 0.0 0.00 0.00 0.00 92 1020.2
20260901133942 77 254 0.0 0.0 0.00 0.00 0.00 97 1020.2
20260901133437 76 254 0.0 0.0 0.00 0.00 0.00 97 1020.2
20260901132930 76 254 0.0 0.0 0.00 0.00 0.00 99 1020.2
20260901132424 75 254 0.0 0.0 0.00 0.00 0.00 99 1020.2
20260901131919 74 254 0.0 0.0 0.00 0.00 0.00 100 1020.2
20260901131645 74 254 0.0 0.0 0.00 0.00 0.00 100 1020.3
20260901130907 74 254 0.0 0.0 0.00 0.00 0.00 100 1020.3
20260901130401 73 254 0.0 0.0 0.00 0.00 0.00 100 1020.2
20260901125854 72 254 0.0 0.0 0.00 0.00 0.00 100 1020.2
20260901125348 72 254 0.0 0.0 0.00 0.00 0.00 100 1020.2
20260901124843 72 254 0.0 0.0 0.00 0.00 0.00 100 1020.4
20260901124337 71 254 0.0 0.0 0.00 0.00 0.00 100 1020.3
20260901123831 70 254 0.0 0.0 0.00 0.00 0.00 100 1020.3
20260901123324 69 254 0.0 0.0 0.00 0.00 0.00 100 1020.4
20260901123049 69 254 0.0 0.0 0.00 0.00 0.00 100 1020.3
20260901122312 68 254 0.0 0.0 0.00 0.00 0.00 100 1020.3
20260901121806 68 254 0.0 0.0 0.00 0.00 0.00 100 1020.3
20260901121300 68 254 0.0 0.0 0.00 0.00 0.00 100 1020.2
20260901121029 68 254 0.0 0.0 0.00 0.00 0.00 100 1020.2
20260901120802 68 254 0.0 0.0 0.00 0.00 0.00 100 1020.2
20260901120249 67 254 0.0 0.0 0.00 0.00 0.00 100 1020.1
20260901115743 67 254 0.0 0.0 0.00 0.00 0.00 100 1020.0
20260901115237 67 254 0.0 0.0 0.00 0.00 0.00 100 1019.9
20260901114731 66 254 0.0 0.0 0.00 0.00 0.00 100 1019.9
20260901114224 66 254 0.0 0.0 0.00 0.00 0.00 100 1019.6
20260901113719 66 254 0.0 0.0 0.00 0.00 0.00 100 1019.6
20260901113445 66 254 0.0 0.0 0.00 0.00 0.00 100 1019.6
20260901112707 66 254 0.0 0.0 0.00 0.00 0.00 100 1019.5
20260901112207 66 254 0.0 0.0 0.00 0.00 0.00 100 1019.4
20260901111704 66 254 0.0 0.0 0.00 0.00 0.00 100 1019.4
20260901111203 66 254 0.0 0.0 0.00 0.00 0.00 100 1019.4
20260901110700 66 254 0.0 0.0 0.00 0.00 0.00 100 1019.4
20260901110158 66 254 0.0 0.0 0.00 0.00 0.00 100 1019.3
20260901105706 66 254 0.0 0.0 0.00 0.00 0.00 100 1019.2
20260901104952 66 254 0.0 0.0 0.00 0.00 0.00 100 1019.1
20260901104152 66 254 0.0 0.0 0.00 0.00 0.00 100 1019.1
20260901103656 66 254 0.0 0.0 0.00 0.00 0.00 100 1019.1
20260901103422 66 254 0.0 0.0 0.00 0.00 0.00 100 1018.9
20260901102921 66 254 0.0 0.0 0.00 0.00 0.00 100 1018.9
20260901102417 67 254 0.0 0.0 0.00 0.00 0.00 100 1018.9
20260901101646 67 254 0.0 0.0 0.00 0.00 0.00 100 1018.9
20260901101145 67 254 0.0 0.0 0.00 0.00 0.00 100 1018.9
20260901100644 66 254 0.0 0.0 0.00 0.00 0.00 100 1018.9
20260901100417 67 254 0.0 0.0 0.00 0.00 0.00 100 1018.8
20260901095641 67 254 0.0 0.0 0.00 0.00 0.00 100 1018.7
20260901095140 67 254 0.0 0.0 0.00 0.00 0.00 100 1018.7
20260901094148 67 254 0.0 0.0 0.00 0.00 0.00 100 1018.8
20260901093639 67 254 0.0 0.0 0.00 0.00 0.00 100 1018.8
20260901093139 67 254 0.0 0.0 0.00 0.00 0.00 100 1018.8
20260901092641 67 254 0.0 0.0 0.00 0.00 0.00 100 1018.9
20260901092445 67 254 0.0 0.0 0.00 0.00 0.00 100 1018.9
20260901091641 67 254 0.0 0.0 0.00 0.00 0.00 100 1018.8
20260901091137 67 254 0.0 0.0 0.00 0.00 0.00 100 1018.9
20260901090636 67 254 0.0 0.0 0.00 0.00 0.00 100 1018.8
20260901090408 67 254 0.0 0.0 0.00 0.00 0.00 100 1018.8
20260901085635 67 254 0.0 0.0 0.00 0.00 0.00 100 1018.8
20260901085138 67 254 0.0 0.0 0.00 0.00 0.00 100 1018.9
20260901084635 67 254 0.0 0.0 0.00 0.00 0.00 100 1019.0
20260901084137 67 254 0.0 0.0 0.00 0.00 0.00 100 1019.1
20260901083635 67 254 0.0 0.0 0.00 0.00 0.00 100 1019.2
20260901083134 67 254 0.0 0.0 0.00 0.00 0.00 100 1019.1
20260901082634 67 254 0.0 0.0 0.00 0.00 0.00 100 1019.1
20260901082359 67 254 0.0 0.0 0.00 0.00 0.00 100 1019.1
20260901081854 67 254 0.0 0.0 0.00 0.00 0.00 100 1019.1
20260901081347 67 254 0.0 0.0 0.00 0.00 0.00 100 1019.1
20260901080610 67 254 0.0 0.0 0.00 0.00 0.00 100 1019.1
20260901080103 68 254 0.0 0.0 0.00 0.00 0.00 100 1019.1
20260901075830 68 254 0.0 0.0 0.00 0.00 0.00 100 1019.1
20260901075324 68 254 0.0 0.0 0.00 0.00 0.00 100 1019.1
20260901074817 68 254 0.0 0.0 0.00 0.00 0.00 100 1019.1
20260901074039 68 254 0.0 0.0 0.00 0.00 0.00 100 1019.2
20260901073534 68 254 0.0 0.0 0.00 0.00 0.00 100 1019.1
20260901073300 68 254 0.0 0.0 0.00 0.00 0.00 100 1019.2
20260901072521 68 254 0.0 0.0 0.00 0.00 0.00 100 1019.2
20260901072015 68 254 0.0 0.0 0.00 0.00 0.00 100 1019.2
20260901071003 68 254 0.0 0.0 0.00 0.00 0.00 100 1019.2
20260901070458 68 254 0.0 0.0 0.00 0.00 0.00 100 1019.2
20260901065952 68 254 0.0 0.0 0.00 0.00 0.00 100 1019.3
20260901065445 68 254 0.0 0.0 0.00 0.00 0.00 100 1019.3
20260901064937 68 254 0.0 0.0 0.00 0.00 0.00 100 1019.3
20260901064432 68 254 0.0 0.0 0.00 0.00 0.00 100 1019.3
20260901063926 68 254 0.0 0.0 0.00 0.00 0.00 100 1019.4
20260901063420 68 254 0.0 0.0 0.00 0.00 0.00 100 1019.4
20260901062913 68 254 0.0 0.0 0.00 0.00 0.00 100 1019.4
20260901062409 68 254 0.0 0.0 0.00 0.00 0.00 100 1019.4
20260901061902 69 254 0.0 0.0 0.00 0.00 0.00 100 1019.4
20260901061356 69 254 0.0 0.0 0.00 0.00 0.00 100 1019.4
20260901060849 69 254 0.0 0.0 0.00 0.00 0.00 100 1019.4
20260901060344 69 254 0.0 0.0 0.00 0.00 0.00 100 1019.5
20260901055838 69 254 0.0 0.0 0.00 0.00 0.00 100 1019.5
20260901055332 69 254 0.0 0.0 0.00 0.00 0.00 100 1019.5
20260901054826 69 254 0.0 0.0 0.00 0.00 0.00 99 1019.5
20260901054320 69 254 0.0 0.0 0.00 0.00 0.00 100 1019.6
20260901053814 69 254 0.0 0.0 0.00 0.00 0.00 100 1019.6
20260901053308 69 254 0.0 0.0 0.00 0.00 0.00 100 1019.6
20260901052802 69 254 0.0 0.0 0.00 0.00 0.00 100 1019.6
20260901052256 69 254 0.0 0.0 0.00 0.00 0.00 100 1019.9
20260901051750 69 254 0.0 0.0 0.00 0.00 0.00 100 1019.8
20260901051516 69 254 0.0 0.0 0.00 0.00 0.00 100 1019.8
20260901051008 69 254 0.0 0.0 0.00 0.00 0.00 100 1019.9
20260901050232 69 254 0.0 0.0 0.00 0.00 0.00 99 1019.9
20260901045725 70 254 0.0 0.0 0.00 0.00 0.00 99 1019.9
20260901045219 70 254 0.0 0.0 0.00 0.00 0.00 99 1019.9
20260901044946 70 254 0.0 0.0 0.00 0.00 0.00 99 1019.8
20260901044208 70 254 0.0 0.0 0.00 0.00 0.00 100 1019.8
20260901043702 70 254 0.0 0.0 0.00 0.00 0.00 99 1019.8
20260901043156 70 254 0.0 0.0 0.00 0.00 0.00 100 1019.6
20260901042650 70 254 0.0 0.0 0.00 0.00 0.00 100 1019.6
20260901042144 70 254 0.0 0.0 0.00 0.00 0.00 100 1019.5
20260901041637 70 254 0.0 0.0 0.00 0.00 0.00 100 1019.5
20260901041132 70 254 0.0 0.0 0.00 0.00 0.00 100 1019.4
20260901040626 70 254 0.0 0.0 0.00 0.00 0.00 100 1019.5
20260901040351 70 254 0.0 0.0 0.00 0.00 0.00 99 1019.4
20260901035621 70 254 0.0 0.0 0.00 0.00 0.00 99 1019.4
20260901035118 70 254 0.0 0.0 0.00 0.00 0.00 99 1019.4
20260901034618 71 254 0.0 0.0 0.00 0.00 0.00 99 1019.4
20260901034117 71 254 0.0 0.0 0.00 0.00 0.00 99 1019.4
20260901033617 71 254 0.0 0.0 0.00 0.00 0.00 99 1019.3
20260901033349 71 254 0.0 0.0 0.00 0.00 0.00 99 1019.3
20260901032617 71 254 0.0 0.0 0.00 0.00 0.00 99 1019.3
20260901032116 71 254 0.0 0.0 0.00 0.00 0.00 99 1019.4
20260901031615 71 254 0.0 0.0 0.00 0.00 0.00 99 1019.4
20260901031113 71 254 0.0 0.0 0.00 0.00 0.00 99 1019.5
20260901030612 71 254 0.0 0.0 0.00 0.00 0.00 99 1019.5
20260901030113 71 254 0.0 0.0 0.00 0.00 0.00 99 1019.5
20260901025611 71 254 0.0 0.0 0.00 0.00 0.00 99 1019.5
20260901025110 71 254 0.0 0.0 0.00 0.00 0.00 99 1019.5
20260901024610 71 254 0.0 0.0 0.00 0.00 0.00 99 1019.5
20260901024110 72 254 0.0 0.0 0.00 0.00 0.00 99 1019.5
20260901023611 72 254 0.0 0.0 0.00 0.00 0.00 99 1019.5
20260901023107 72 254 0.0 0.0 0.00 0.00 0.00 99 1019.4
20260901022605 72 254 0.0 0.0 0.00 0.00 0.00 99 1019.4
20260901022107 72 254 0.0 0.0 0.00 0.00 0.00 99 1019.4
20260901021606 72 254 0.0 0.0 0.00 0.00 0.00 99 1019.4
20260901021106 72 254 0.0 0.0 0.00 0.00 0.00 98 1019.4
20260901020109 73 254 0.0 0.0 0.00 0.00 0.00 98 1019.3
20260901015608 73 254 0.0 0.0 0.00 0.00 0.00 98 1019.3
20260901015340 73 254 0.0 0.0 0.00 0.00 0.00 98 1019.3
20260901014605 73 254 0.0 0.0 0.00 0.00 0.00 98 1019.2
20260901014104 73 254 0.0 0.0 0.00 0.00 0.00 98 1019.2
20260901013605 73 254 0.0 0.0 0.00 0.00 0.00 98 1019.1
20260901013103 73 254 0.0 0.0 0.00 0.00 0.00 97 1019.1
20260901012602 74 254 0.0 0.0 0.00 0.00 0.00 97 1019.0
20260901012101 74 254 0.0 0.0 0.00 0.00 0.00 98 1018.9
20260901011602 74 254 0.0 0.0 0.00 0.00 0.00 98 1018.8
20260901011101 74 254 0.0 0.0 0.00 0.00 0.00 97 1018.8
20260901010100 74 254 0.0 0.0 0.00 0.00 0.00 97 1018.7
20260901005825 74 254 0.0 0.0 0.00 0.00 0.00 96 1018.7
20260901005319 74 254 0.0 0.0 0.00 0.00 0.00 96 1018.6
20260901004542 75 254 0.0 0.0 0.00 0.00 0.00 95 1018.6
20260901004036 75 254 0.0 0.0 0.00 0.00 0.00 95 1018.5
20260901003530 76 254 0.0 0.0 0.00 0.00 0.00 94 1018.6
20260901003255 76 254 0.0 0.0 0.00 0.00 0.00 94 1018.6
20260901002518 76 254 0.0 0.0 0.00 0.00 0.00 94 1018.5
20260901002012 77 254 0.0 0.0 0.00 0.00 0.00 94 1018.5
20260901001506 77 254 0.0 0.0 0.00 0.00 0.00 93 1018.5
20260901001000 77 254 0.0 0.0 0.00 0.00 0.00 93 1018.4
20260901000453 78 254 0.0 0.0 0.00 0.00 0.00 92 1018.5
20260831235948 78 254 0.0 0.0 0.00 0.00 0.00 92 1018.4
20260831235442 78 254 0.0 0.0 0.00 0.00 0.00 91 1018.5
20260831235208 79 254 0.0 0.0 0.00 0.00 0.00 90 1018.5
20260831234435 80 254 0.0 0.0 0.00 0.00 0.00 90 1018.5
20260831234154 80 254 0.0 0.0 0.00 0.00 0.00 90 1018.4
20260831233649 80 254 0.0 0.0 0.00 0.00 0.00 89 1018.5
20260831232912 80 254 0.0 0.0 0.00 0.00 0.00 89 1018.5
20260831232405 80 254 0.0 0.0 0.00 0.00 0.00 88 1018.5
20260831231900 80 254 0.0 0.0 0.00 0.00 0.00 89 1018.5
20260831231624 80 254 0.0 0.0 0.00 0.00 0.00 88 1018.6
20260831230847 80 254 0.0 0.0 0.00 0.00 0.00 89 1018.5
20260831230342 80 254 0.0 0.0 0.00 0.00 0.00 89 1018.5
20260831225836 80 254 0.0 0.0 0.00 0.00 0.00 90 1018.5
20260831225601 80 254 0.0 0.0 0.00 0.00 0.00 88 1018.5